Location: ActonStarParty
(42.4766°N, 71.4538°W)
Time: 04:13:15
(UTC-04:00)

ISS - All Passes

Search period start: 26 April 2015 00:00
Search period end: 06 May 2015 00:00
Orbit: 395 x 402 km, 51.6° (Epoch: 26 April)

Date Brightness Start Highest point End Pass type
(mag) Time Alt. Az. Time Alt. Az. Time Alt. Az.
26 Apr - 10:56:46 10° S 10:58:46 16° SE 11:00:51 10° E daylight
26 Apr - 12:31:35 10° WSW 12:34:50 64° NNW 12:38:04 10° NE daylight
26 Apr - 14:09:11 10° WNW 14:11:39 19° NNW 14:14:07 10° NE daylight
26 Apr - 15:46:34 10° NW 15:48:52 17° N 15:51:10 10° NE daylight
26 Apr - 17:22:42 10° NW 17:25:50 43° NNE 17:28:58 10° ESE daylight
26 Apr - 18:59:20 10° W 19:02:04 24° SW 19:04:45 10° SSE daylight
27 Apr - 11:37:28 10° SW 11:40:41 67° SE 11:43:56 10° ENE daylight
27 Apr - 13:14:31 10° WNW 13:17:17 25° NNW 13:20:03 10° NE daylight
27 Apr - 14:52:17 10° NW 14:54:26 16° N 14:56:36 10° NE daylight
27 Apr - 16:28:39 10° NW 16:31:33 28° NNE 16:34:27 10° E daylight
27 Apr - 18:04:52 10° WNW 18:08:02 48° SW 18:11:10 10° SE daylight
28 Apr - 10:43:38 10° SSW 10:46:35 33° SE 10:49:34 10° ENE daylight
28 Apr - 12:19:53 10° W 12:22:55 35° NNW 12:25:58 10° NE daylight
28 Apr - 13:57:45 10° NW 13:59:57 17° N 14:02:10 10° NE daylight
28 Apr - 15:34:34 10° NW 15:37:09 21° NNE 15:39:46 10° ENE daylight
28 Apr - 17:10:36 10° NW 17:13:53 86° NNE 17:17:08 10° ESE daylight
28 Apr - 18:48:37 10° WSW 18:49:49 11° SW 18:50:54 10° SSW daylight
29 Apr - 09:50:20 10° S 09:52:31 17° SE 09:54:46 10° E daylight
29 Apr - 11:25:23 10° WSW 11:28:36 59° NNW 11:31:50 10° NE daylight
29 Apr - 13:03:02 10° WNW 13:05:27 19° NNW 13:07:52 10° NE daylight
29 Apr - 14:40:21 10° NW 14:42:40 18° N 14:45:00 10° NE daylight
29 Apr - 16:16:25 10° NW 16:19:35 47° NNE 16:22:45 10° ESE daylight
29 Apr - 17:53:09 10° W 17:55:46 22° SW 17:58:21 10° S daylight
30 Apr - 10:31:05 10° SW 10:34:19 74° SE 10:37:34 10° ENE daylight
30 Apr - 12:08:13 10° WNW 12:10:56 24° NNW 12:13:39 10° NE daylight
30 Apr - 13:45:57 10° NW 13:48:06 16° N 13:50:16 10° NE daylight
30 Apr - 15:22:15 10° NW 15:25:11 30° NNE 15:28:07 10° E daylight
30 Apr - 16:58:30 10° WNW 17:01:37 43° SW 17:04:43 10° SSE daylight
01 May - 09:37:05 10° SSW 09:40:05 36° SE 09:43:07 10° ENE daylight
01 May - 11:13:27 10° W 11:16:26 33° NNW 11:19:27 10° NE daylight
01 May - 12:51:18 10° NW 12:53:29 16° N 12:55:40 10° NE daylight
01 May - 14:28:02 10° NW 14:30:40 22° NNE 14:33:18 10° ENE daylight
01 May - 16:04:05 10° WNW 16:07:21 87° SSW 16:10:36 10° SE daylight
01 May - 17:42:36 10° WSW 17:43:15 10° SW 17:43:46 10° SW daylight
02 May - 08:43:33 10° S 08:45:52 19° SE 08:48:15 10° E daylight
02 May - 10:18:47 10° WSW 10:21:58 54° NNW 10:25:11 10° NE daylight
02 May - 11:56:28 10° WNW 11:58:51 18° N 12:01:13 10° NE daylight
02 May - 13:33:43 10° NW 13:36:03 18° N 13:38:24 10° NE daylight
02 May - 15:09:45 10° NW 15:12:56 50° NNE 15:16:07 10° ESE daylight
02 May - 16:46:34 10° W 16:49:04 20° SW 16:51:32 10° S daylight
03 May - 09:24:19 10° SW 09:27:33 80° SE 09:30:48 10° ENE daylight
03 May - 11:01:31 10° WNW 11:04:11 23° NNW 11:06:51 10° NE daylight
03 May - 12:39:12 10° NW 12:41:21 16° N 12:43:31 10° NE daylight
03 May - 14:15:27 10° NW 14:18:24 31° NNE 14:21:23 10° E daylight
03 May - 15:51:43 10° WNW 15:54:48 39° SW 15:57:51 10° SSE daylight
04 May - 08:30:08 10° SSW 08:33:10 39° SE 08:36:13 10° ENE daylight
04 May - 10:06:36 10° W 10:09:33 31° NNW 10:12:31 10° NE daylight
04 May - 11:44:27 10° NW 11:46:36 16° N 11:48:46 10° NE daylight
04 May - 13:21:06 10° NW 13:23:46 23° NNE 13:26:26 10° ENE daylight
04 May - 14:57:09 10° WNW 15:00:24 81° SW 15:03:38 10° SE daylight
05 May - 07:36:23 10° S 07:38:49 20° SE 07:41:18 10° E daylight
05 May - 09:11:46 10° WSW 09:14:57 51° NNW 09:18:07 10° NE daylight
05 May - 10:49:29 10° NW 10:51:49 18° N 10:54:09 10° NE daylight
05 May - 12:26:39 10° NW 12:29:01 18° N 12:31:23 10° ENE daylight
05 May - 14:02:41 10° NW 14:05:52 54° NNE 14:09:04 10° ESE daylight
05 May - 15:39:34 10° W 15:41:58 19° SW 15:44:19 10° S daylight
